Ardmore, OK

12:15 AM CDT on July 22, 2017 (GMT -0500)
Ardmore Municipal

Weather History for KADM - March, 2013

Change the Weather History Date:

Friday, March 29, 2013

  Actual Average Record
Temperature  
Mean Temperature 68 °F -  
Max Temperature 77 °F 66 °F 83 °F (2015)
Min Temperature 59 °F 47 °F 28 °F (2009)
Cooling Degree Days 3    
Growing Degree Days 18 (Base 50)    
Moisture  
Dew Point 54 °F    
Average Humidity 68    
Maximum Humidity 83    
Minimum Humidity 47    
Precipitation  
Precipitation 0.00 in - - ()
Sea Level Pressure  
Sea Level Pressure 30.10 in    
Wind  
Wind Speed 9 mph (SSE)    
Max Wind Speed 20 mph    
Max Gust Speed 26 mph    
Visibility 10 miles    
Events      
Averages and records for this station are not official NWS values.
T = Trace of Precipitation, MM = Missing Value Source: NWS Daily Summary

Daily Weather History Graph

Daily Weather History Graph

Search for Another Location

Airport or City:

Trip Planner

Search our weather history database for the weather conditions in past years. The results will help you decide how hot, cold, wet, or windy it might be!

Date:

Astronomy

Mar. 29, 2013 Rise Set
Actual Time 7:18 AM CDT 7:46 PM CDT
Civil Twilight 6:53 AM CDT 8:12 PM CDT
Nautical Twilight 6:24 AM CDT 8:41 PM CDT
Astronomical Twilight 5:54 AM CDT 9:11 PM CDT
Moon 10:39 PM CDT (3/29) 8:36 AM CDT (3/29)
Length of Visible Light 13h 18m
Length of Day
12h 27m
Waning Gibbous, 93% of the Moon is Illuminated
Mar 29
Waning Gibbous
Apr 2
Last Quarter
Apr 10
New
Apr 18
First Quarter
Apr 25
Full

Hourly Weather History & Observations

Time (CDT) Temp. Dew Point Humidity Pressure Visibility Wind Dir Wind Speed Gust Speed Precip Events Conditions
12:15 AM 64.6 °F 52.0 °F 64% 30.12 in 10.0 mi SE 8.1 mph - N/A   Mostly Cloudy
12:35 AM 64.4 °F 52.0 °F 64% 30.11 in 10.0 mi SE 8.1 mph - N/A   Mostly Cloudy
12:55 AM 63.7 °F 52.0 °F 66% 30.11 in 10.0 mi SE 9.2 mph - N/A   Mostly Cloudy
1:15 AM 63.1 °F 52.0 °F 67% 30.12 in 10.0 mi SE 6.9 mph - N/A   Mostly Cloudy
1:35 AM 62.6 °F 51.8 °F 68% 30.12 in 10.0 mi ESE 8.1 mph - N/A   Mostly Cloudy
1:55 AM 61.9 °F 51.8 °F 69% 30.12 in 10.0 mi SE 5.8 mph - N/A   Mostly Cloudy
2:15 AM 61.3 °F 51.8 °F 71% 30.11 in 10.0 mi ESE 8.1 mph - N/A   Mostly Cloudy
2:35 AM 61.7 °F 52.3 °F 71% 30.12 in 10.0 mi ESE 8.1 mph - N/A   Mostly Cloudy
2:55 AM 62.2 °F 52.7 °F 71% 30.12 in 10.0 mi SE 8.1 mph - N/A   Overcast
3:15 AM 62.6 °F 52.7 °F 70% 30.12 in 10.0 mi SE 8.1 mph - N/A   Overcast
3:35 AM 62.1 °F 52.7 °F 71% 30.11 in 10.0 mi SSE 6.9 mph - N/A   Overcast
3:55 AM 61.7 °F 53.1 °F 73% 30.10 in 10.0 mi SSE 5.8 mph - N/A   Overcast
4:15 AM 61.7 °F 53.1 °F 73% 30.10 in 10.0 mi SSE 6.9 mph - N/A   Overcast
4:35 AM 61.9 °F 54.0 °F 75% 30.10 in 10.0 mi South 12.7 mph 16.1 mph N/A   Overcast
4:55 AM 62.6 °F 53.8 °F 73% 30.10 in 10.0 mi South 8.1 mph - N/A   Overcast
5:15 AM 62.6 °F 53.8 °F 73% 30.10 in 10.0 mi SSE 6.9 mph - N/A   Overcast
5:35 AM 62.1 °F 54.0 °F 75% 30.10 in 10.0 mi South 9.2 mph - N/A   Mostly Cloudy
5:55 AM 61.7 °F 53.8 °F 75% 30.10 in 10.0 mi SSE 6.9 mph - N/A   Scattered Clouds
6:15 AM 61.0 °F 53.6 °F 77% 30.11 in 10.0 mi SSE 5.8 mph - N/A   Clear
6:35 AM 60.3 °F 53.4 °F 78% 30.12 in 10.0 mi South 4.6 mph - N/A   Clear
6:55 AM 59.0 °F 53.6 °F 82% 30.12 in 7.0 mi SSE 4.6 mph - N/A   Mostly Cloudy
7:55 AM 60.8 °F 53.6 °F 77% 30.14 in 10.0 mi South 8.1 mph - N/A   Overcast
8:55 AM 62.6 °F 53.6 °F 72% 30.14 in 10.0 mi South 13.8 mph 17.3 mph N/A   Overcast
9:55 AM 66.2 °F 55.4 °F 68% 30.12 in 10.0 mi South 19.6 mph 25.3 mph N/A   Clear
10:55 AM 69.8 °F 55.4 °F 60% 30.12 in 10.0 mi SSW 13.8 mph 23.0 mph N/A   Clear
11:55 AM 71.6 °F 55.4 °F 57% 30.13 in 10.0 mi SSW 12.7 mph 17.3 mph N/A   Scattered Clouds
12:55 PM 71.6 °F 55.4 °F 57% 30.12 in 10.0 mi South 9.2 mph - N/A   Overcast
1:55 PM 73.4 °F 55.4 °F 53% 30.09 in 10.0 mi South 11.5 mph - N/A   Mostly Cloudy
2:55 PM 77.0 °F 55.4 °F 47% 30.07 in 10.0 mi SSE 10.4 mph - N/A   Scattered Clouds
3:55 PM 75.2 °F 53.6 °F 47% 30.06 in 10.0 mi South 9.2 mph - N/A   Mostly Cloudy
5:55 PM 71.6 °F 53.6 °F 53% 30.04 in 10.0 mi SSE 10.4 mph - N/A   Scattered Clouds
11:35 PM 62.8 °F 57.6 °F 83% 30.00 in 10.0 mi South 17.3 mph 26.5 mph N/A   Light Drizzle
11:55 PM 63.7 °F 57.4 °F 80% 30.00 in 10.0 mi SSE 10.4 mph 21.9 mph N/A   Scattered Clouds